Location: Assche-ter-Heiden
(50.9174°N, 4.1574°E)
Time: 21:15:43
(UTC+00:00)

STARLINK-70 - Pass Details

Date: 20 January 2020
Orbit: 528 x 531 km, 53.0° (Epoch: 17 February)

Event Time Altitude Azimuth Distance (km) Brightness Sun altitude
Exits shadow 06:15:23 - 228° (SW) 2,511 6.7 -12.3°
Reaches altitude 10° 06:17:16 10° 224° (SW) 1,773 6.0 -12.1°
Maximum altitude 06:21:08 48° 149° (SSE) 699 4.5 -11.5°
Drops below altitude 10° 06:25:02 10° 75° (ENE) 1,782 7.1 -10.9°
Sets 06:27:18 0° 70° (ENE) 2,676 8.0 -10.6°
